EUTELSAT 33E

Last updated on Jan. 27, 2020, 4:38 a.m. UTC

1 33750U 09008B   20026.78315536  .00000150  00000-0  00000+0 0  9998
2 33750   0.0517  20.6193 0004308 289.5022 130.3999  1.00270736 40203
UTC
Height (km)
Latitude
Longitude
Inclination
Orbital Period
UTC large
Height (km)
Speed (km/s)
/
Latitude / Longitude
Inclination (degrees)
Orbital Period (minutes)
Azimuth
Elevation
Range (km)
Doppler Factor
iOS Compass Heading
iOS Angle

Next 30 passes for location: Hong Kong

Rise time Rise Azimuth (degrees) Set time Set Azimuth (degrees) Duration Max altitude (degrees)

No matching passes for this satellites